Showing default

ELEKTRO-L 3, 44903

Orbit data source: Space-Track

ELEKTRO-L 3, 44903 is a Commonwealth of Independent States-origin payload satellite in GEO that was launched on Tue, 24 Dec 2019 UTC via a PROTON-M/DM-3 launch vehicle from the Tyuratam Missile And Space Complex (TTMTR). Payload-class satellites include a variety of spacecraft equipped with specific instruments for various scientific and technological missions. These include communications satellites like Starlink; space stations such as the ISS; scientific satellites like the Hubble; Earth observation satellites from companies like Planet Labs, Umbra, and HawkEye 360; GPS; miniature CubeSats for education and research; and military/defense satellites.

Not visible in the next 10 days
Identifier
44903, 2019-095A
Orbit
GEO
Last TLE update
13 hours ago
Origin
Manufacturer
Lavochkin
Mission
Operational Civil Weather
Bus & Motor
NAVIGATOR, Unknown motor
Mass
2,283 kg wet, 1,589 kg dry
Launch date (UTC)
2019-12-24 (6 years ago)
Launch vehicle
PROTON-M/DM-3
Launch site
Tyuratam Missile And Space Complex (TTMTR)
Object type
Payload
Rocket body
Debris
Shape & HBR
Box + 1 Pan + 1 Ant, Unknown HBR
Radar Cross Section
11.105 m², Large (>1 m²)

Expand to show TLE details & history

TLE from 13 hours ago
0 ELEKTRO-L 3
1 44903U 19095A   25181.85114198 -.00000096  00000-0  00000-0 0  9994
2 44903   0.0903 143.2335 0000668   0.7383 157.6287  1.00271577 20183
Epoch: 2025-06-30T20:25Z
TLE epoch observation values (Epoch: 2025-06-30T20:25:38.667Z)
Latitude
0.01106°
Longitude
76.05151°
Altitude
35,788.752 km
Speed
3.075 km/s
True Right ascension
20h 06m 28s
True Declination
0° 00' 40"
Sunlit
Object was in daylight at epoch
Visualization orbit readout
Latitude
0.00463°
Longitude
-92.02161°
Altitude
35,783.373 km
Speed
3.075 km/s
Apparent Right ascension
08h 53m 41s
Apparent Declination
-4° 56' 24"
Sunlit
Object is in daylight
Visualization observer readout
Local Sidereal Time
20:49:31
Azimuth
358.188° N
Elevation
-55.011°
Doppler factor
1
Orbital elements
Apogee altitude
35,790.54 km
Perigee altitude
35,784.907 km
Semi-major axis
42,165.861 km
Eccentricity
0.00007
Inclination
0.0903°
RAAN
143.2335°
Arg. of periapsis
0.7383°
True anomaly
Unknown
Mean anomaly
157.6287°
Eccentric anomaly
Unknown
Mean motion
0.25067 °/min
Orbital period
1,436.15 mins
BSTAR
0
Loading historical data...
44903 neighbors
Loading maneuver chart data...
Loading SW <> Apogee altitude chart data...
Loading historical data...
Loading historical data...
Loading historical data...
Loading historical data...
Loading historical data...
Loading historical data...
Loading historical data...
Other satellites on launch #95 in the year 2019 (2019-12-24 UTC)

ELEKTRO-L 3 Visibility

Observer location: undefined°, undefined°

ELEKTRO-L 3 is likely not visible in the next few days
Span
Click to sort rows by Start time (UTC) header in descending order
Start Az.
Max El. time (UTC)
Max El. Az.
Max El.
End time (UTC)
End Az.
|